Location: Espelette
(43.3402°N, 1.4474°W)
Time: 21:44:17
(UTC+00:00)

Cosmos 2058 Rocket - Pass Details

Date: 19 May 2025
Orbit: 604 x 634 km, 82.5° (Epoch: 18 June)

Event Time Altitude Azimuth Distance (km) Brightness Sun altitude
Exits shadow 20:36:32 - 177° (S) 2,392 5.7 -11.1°
Reaches altitude 10° 20:37:29 10° 176° (S) 2,010 5.3 -11.2°
Maximum altitude 20:41:53 63° 96° (E) 705 3.1 -11.8°
Drops below altitude 10° 20:46:19 10° 15° (NNE) 2,016 6.1 -12.4°
Sets 20:48:34 0° 12° (NNE) 2,923 7.0 -12.7°
